Regional Weather Roundup
Issued by NWS Wakefield, VA

Home | Current Version | Previous Version | Graphics & Text | Print | Product List | Glossary On
Versions: 1 2 3 4 5 6 7 8 9 10 11 12 13 14 15 16 17 18 19 20 21 22 23 24 25 26 27 28 29 30 31 32 33 34 35 36 37 38 39 40 41 42 43 44 45 46 47 48 49
763
ASUS41 KAKQ 282015
RWRAKQ

REGIONAL WEATHER ROUNDUP
NATIONAL WEATHER SERVICE WAKEFIELD VA
400 PM EDT SAT MAY 28 2016

Note: "fair" indicates few or no clouds below 12,000 feet with no
significant weather and/or obstructions to visibility. * = Denotes
station may not report precipitation (e.g., rain,snow,etc.),
thunder or fog.

VAZ042-051-052>054-056-282100-
NORTHERN VIRGINIA

CITY           SKY/WX    TMP DP  RH WIND       PRES   REMARKS
WASH NATIONAL  FAIR      86  67  52 S13       30.12F
DULLES         FAIR      86  65  49 S8        30.11F
FORT BELVOIR   FAIR      89  63  42 VRB6      30.11F
QUANTICO       FAIR      83  69  62 S12       30.12F
FREDERICKSBRG* FAIR      88  65  46 S8        30.12S
STAFFORD*      FAIR      88  61  40 SE9       30.16F
WARRENTON      FAIR      90  57  32 S6        30.12F
CULPEPER*      PTSUNNY   89  66  46 S7        30.12F
MANASSAS*      MOSUNNY   90  63  40 S12       30.11F
LEESBURG*      FAIR      91  68  46 S15G22    30.12F HX  95
WINCHESTER     FAIR      88  66  48 S8        30.12F
FRONT ROYAL*   FAIR      88  66  48 S7        30.11F
LURAY*         FAIR      88  64  45 S7        30.12F
$$

VAZ048-049-060>072-079>083-282100-
CENTRAL AND SOUTH CENTRAL VIRGINIA

CITY           SKY/WX    TMP DP  RH WIND       PRES   REMARKS
RICHMOND       PTSUNNY   83  62  49 S7        30.14F
CHESTERFIELD*  MOCLDY    84  57  39 S8G16     30.16F
PETERSBURG*    FAIR      86  52  30 E6        30.15F
HANOVER        FAIR      86  60  41 S9        30.15F
TAPPAHANNOCK*  FAIR      88  59  37 SE5       30.15F
QUINTON*       FAIR      85  62  45 E5        30.15F
CHARLOTTSVILLE FAIR      88  62  41 S10       30.12F
GORDONSVILLE*  FAIR      88  65  46 S5        30.12F
ORANGE*        FAIR      88  61  40 NE10      30.14F
LOUISA*        FAIR      90  66  45 CALM      30.13F
BUMPASS*       FAIR      86  64  46 CALM      30.13F
FARMVILLE*     NOT AVBL
CREWE*         FAIR      85  62  46 CALM      30.15F
FORT PICKETT*  NOT AVBL
CHASE CITY*    MOCLDY    84  57  39 SE3       30.15F
CLARKSVILLE*   FAIR      84  61  45 E6        30.15F
SOUTH HILL*    FAIR      82  58  42 S3        30.21F
LAWRENCEVILLE* FAIR      84  58  40 E3        30.15F
EMPORIA*       FAIR      86  59  39 SE10      30.16F
$$

VAZ088>098-282100-
SOUTHEAST VIRGINIA

CITY           SKY/WX    TMP DP  RH WIND       PRES   REMARKS
NORFOLK        FAIR      82  64  54 SE13      30.15F
VIRGINIA BEACH FAIR      85  64  49 SE14      30.16F
NORFOLK NAVAL  FAIR      84  66  54 E10       30.16F
WEST POINT*    FAIR      85  47  26 SE7       30.17F
SALUDA*        FAIR      83  55  37 SE7       30.15F
NEWPORT NEWS   FAIR      82  66  58 E9        30.15F
LANGLEY AFB    FAIR      81  66  61 E13       30.16F
FORT EUSTIS    FAIR      84  66  53 S7        30.13F
WILLIAMSBURG*  FAIR      90  61  37 SE6       30.16F
HR EXEC AP*    FAIR      86  64  48 S9        30.16F
FRANKLIN*      FAIR      86  58  39 SE5       30.14F
US460-WAKEFLD  FAIR      85  59  41 VRB5      30.14F
$$

VAZ020-022-025-037-045-282100-
WEST CENTRAL AND SOUTHWEST VIRGINIA

CITY           SKY/WX    TMP DP  RH WIND       PRES   REMARKS
STAUNTON*      FAIR      84  61  45 S9        30.16F
WAYNESBORO*    FAIR      83  58  42 E9        30.16F
HOT SPRINGS VA FAIR      75  58  54 S5        30.27F
LYNCHBURG      PTSUNNY   83  60  45 E9        30.16F
DANVILLE       FAIR      84  60  44 E8        30.15F
SOUTH BOSTON*  FAIR      84  61  46 CALM      30.15F
MARTINSVILLE   FAIR      83  58  42 SE5       30.18F
ROANOKE        FAIR      83  62  49 SE13      30.17F
BLACKSBURG     PTSUNNY   79  61  53 E7        30.22F
DUBLIN*        FAIR      80  58  46 CALM      30.20F
MARION*        FAIR      80  57  45 E5        30.22F
HILLSVILLE*    FAIR      77  57  50 S5        30.22F
RICHLANDS*     FAIR      78  63  60 CALM      30.19F
WISE*          FAIR      82  46  28 S6        30.21F
ABINGDON*      FAIR      83  53  34 N3        30.17F
$$

MDZ021>025-VAZ099-100-282100-
SOUTHERN MARYLAND AND THE DELMARVA PENINSULA

CITY           SKY/WX    TMP DP  RH WIND       PRES   REMARKS
PATUXENT RIVER MOSUNNY   81  59  47 SE12      30.14F
BAY BRIDGE APT SUNNY     84  66  54 S12       30.13F
LEONARDTOWN    SUNNY     82  63  51 S9        30.16F
DOVER          SUNNY     89  70  52 S13       30.12F
GEORGETOWN     MOSUNNY   87  65  47 S10       30.15F
EASTON         SUNNY     86  68  54 SW9       30.18F
CAMBRIDGE      SUNNY     81  57  44 S9        30.15F
SALISBURY      SUNNY     85  64  49 S10       30.15F
OCEAN CITY     SUNNY     75  63  66 S10G17    30.17F
WALLOPS ISLAND FAIR      77  65  66 S15       30.19S
ACCOMACK*      FAIR      81  59  47 S8        30.17F
$$

NCZ012>017-030>032-282100-
NORTH CENTRAL AND EASTERN NORTH CAROLINA

CITY           SKY/WX    TMP DP  RH WIND       PRES   REMARKS
ROANOKE RAPIDS FAIR      82  59  44 E5        30.15F
RALEIGH        MOSUNNY   86  58  38 VRB7      30.14F
ELIZABETH CITY SUNNY     82  64  54 SE14      30.17F
AHOSKIE*       SUNNY     83  60  44 SE6       30.14F
EDENTON*       SUNNY     83  72  68 E12G17    30.16F
CURRITUCK*     SUNNY     81  66  60 E7        30.18F
KILL DEVIL HLS SUNNY     82  67  61 NE7       30.17F
MANTEO         NOT AVBL
CAPE HATTERAS  PTSUNNY   82  69  64 NE6       30.15F
TARBORO*       MOCLDY    88  62  41 S5        30.14F
GOLDSBORO      MOSUNNY  N/A N/A N/A E10         N/A
WASHINGTON     CLOUDY    82  67  58 SE12      30.14F
GREENVILLE     PTSUNNY   84  68  58 SE10      30.15F
NEW BERN       SUNNY     84  63  49 E10       30.14F
WILMINGTON     PTSUNNY   79  68  69 E17G25    30.12F
$$

VAZ048-282100-
ELSEWHERE

CITY           SKY/WX    TMP DP  RH WIND       PRES   REMARKS
HARRISBURG PA  MOSUNNY   90  68  48 VRB3      30.08F
BALTIMORE      MOSUNNY   86  67  52 SE7       30.11F
ANNAPOLIS      SUNNY     79  67  66 S13       30.13F
ANDREWS AFB    FAIR      87  65  48 S10       30.12F
PHILADELPHIA   MOSUNNY   90  64  42 SW16      30.11F
HENDERSON NC   SUNNY     81  54  39 CALM      30.16F
GREENSBORO     PTSUNNY   84  56  38 E8        30.14F
ROCKY MOUNT    SUNNY     87  61  41 VRB6      30.13F
$$

VAZ100-282100-
MARINE

STATION/POSITION TIME  TEMP    WIND        PRES    WAVE   SWELL
                       AIR SEA DIR/SP/G            HT/PER HT/PER
                 (UTC) (F)     (DEG/KT/KT) (MB)    (FT/S) (FT/S)
BRANDYWINE LGT   1900   68     170/ 19/ 21 1021.2F
CAPE MAY NJ      1900   72 70  160/ 15/ 19 1021.3F
LEWES DE         1900   83 65  180/ 10/ 15 1021.1F
15NM E FENWICK I 1950   67 63              1021.9F   2/ 5
OCEAN-CITY-INLET 1900   64 58  210/  9/ 11 1022.7F
WACHAPREAGUE VA  1900   74 76  170/  9/ 12 1022.0F
THOMAS POINT MD  2000   73 67  170/ 17/ 19 1021.4F
GOOSES REEF MD   2000   73 69  160/ 16/ 17 1021.6F   2/ 3
COVE POINT MD    1900   70     190/ 15/ 17 1022.0F
SOLOMONS ISLAND  1900   76 69  130/ 11/ 13   N/A
BISHOPS HEAD MD  1900   78 79  190/ 13/ 16 1021.7F
PINEY POINT MD   1900          160/ 15/ 16   N/A
POTOMAC MD       2000   73 70  170/  8/ 10 1020.1F   1/ 2
CAMBRIDGE MD     1900   83 66  190/  8/ 14 1020.5F
LEWISETTA VA     1900   81 67  150/ 12/ 14 1020.8F
RAPPAHANNOCK LGT 1900          190/  8/  8 1022.6F
STINGRAY PT      1900   73 72  160/ 12/ 12 1022.3F   1/ 2
YORK RVR RNG VA  1900   72     140/ 15/ 16 1021.1F
YORKTOWN VA      1900   78 67  120/ 11/ 13 1021.3F
JAMESTOWN VA     2000   82 76  100/  8/ 10   N/A     0
DOMINION TERM VA 1900   74      80/ 12/ 16 1021.8F
KIPTOPEKE VA     1900      71  160/ 12/ 13   N/A
CHES BAY BRIDGE  1900   71 66   70/ 13/ 14 1022.0F
CAPE HENRY VA    1900   73     110/ 12/ 14   N/A
CHESAPEAKE LGHT  1900   71     120/ 11/ 11 1023.1F
WILLOUBY STN VA  1900   72      90/ 12/ 14 1022.7F
CAPE HENRY BUOY  1912      69                N/A     2/ 8
1ST LANDING BUOY 2000   71 72  120/ 12/ 14 1021.4F   2/ 3
CAPE CHARLES BUO 1926      68                N/A     2/ 8   2/ 8
OFFSHORE WE BUOY 1921      71                N/A     3/ 8   3/ 8
64NM E OF VA BCH 1950   70 65   30/  6/  6 1021.9F   4/ 9   3/ 9
DUCK PIER NC     1900   71 67   60/  8/  9 1021.7F
44100 DUCK FRF   1924      70                N/A     3/ 9
44056 DUCK FRF   1911      69                N/A     2/ 7
OREGON INLET NC  1900   75 75   40/  9/ 11 1021.9F
HATTERAS NC      1900   80 74  100/  7/ 11 1021.0F
DIAMOND SHLS NC  1950   78 78  110/ 10/ 12 1020.9F   5/ 8   5/ 8
CAPE C1F1C2F2C3F3C4F4C5F5C6F6C7F7C8M1C9!



USA.gov is the U.S. government's official web portal to all federal, state and local government web resources and services.